timestamp,surface_pressure_avg,surface_temp_avg,battery_voltage,lat,long
2022-12-07 00:09:00+00:00,296.218,4.9,12.65,47.84626,-54.09684
2022-12-07 00:19:00+00:00,289.6014,4.91,12.65,47.84626,-54.09684
2022-12-07 00:29:00+00:00,286.5731,4.99,12.65,47.84626,-54.09684
2022-12-07 00:39:00+00:00,281.8797,5.0,12.65,47.84626,-54.09684
2022-12-07 00:49:00+00:00,273.9681,4.95,12.65,47.84626,-54.09684
2022-12-07 00:59:00+00:00,266.4964,4.9,12.65,47.84626,-54.09684
2022-12-07 01:09:00+00:00,262.6815,4.9,12.65,47.84626,-54.09684
2022-12-07 01:19:00+00:00,256.0131,4.9,12.65,47.84626,-54.09684
2022-12-07 01:29:00+00:00,247.5031,4.8,12.65,47.84626,-54.09684
2022-12-07 01:39:00+00:00,242.3514,4.79,12.65,47.84626,-54.09684
2022-12-07 01:49:00+00:00,236.4814,4.8,12.65,47.84626,-54.09684
2022-12-07 01:59:00+00:00,226.7214,4.8,12.65,47.84626,-54.09684
2022-12-07 02:09:00+00:00,218.8431,4.79,12.65,47.84626,-54.09684
2022-12-07 02:19:01+00:00,214.6248,4.8,12.65,47.84626,-54.09684
2022-12-07 02:29:01+00:00,209.2665,4.8,12.65,47.84626,-54.09684
2022-12-07 02:39:01+00:00,202.7765,4.8,12.65,47.84626,-54.09684
2022-12-07 02:49:01+00:00,197.9215,4.8,12.65,47.84626,-54.09684
2022-12-07 02:59:01+00:00,195.4698,4.79,12.65,47.84626,-54.09684
2022-12-07 03:09:01+00:00,190.1514,4.7,12.65,47.84626,-54.09684
2022-12-07 03:19:01+00:00,184.4298,4.63,12.65,47.84626,-54.09684
2022-12-07 03:29:01+00:00,181.1715,4.62,12.65,47.84626,-54.09684
2022-12-07 03:39:01+00:00,178.743,4.63,12.65,47.84626,-54.09684
2022-12-07 03:49:01+00:00,177.4381,4.64,12.65,47.84626,-54.09684
2022-12-07 03:59:01+00:00,176.3065,4.6,12.65,47.84626,-54.09684
2022-12-07 04:09:01+00:00,175.5165,4.6,12.65,47.84626,-54.09684
2022-12-07 04:19:00+00:00,175.3482,4.6,12.57,47.84626,-54.09684
2022-12-07 04:29:00+00:00,177.7615,4.6,12.57,47.84626,-54.09684
2022-12-07 04:39:00+00:00,179.7065,4.6,12.57,47.84626,-54.09684
2022-12-07 04:49:00+00:00,179.4631,4.5,12.57,47.84626,-54.09684
2022-12-07 04:59:00+00:00,179.0298,4.4,12.57,47.84626,-54.09684
2022-12-07 05:09:00+00:00,177.8482,4.44,12.57,47.84626,-54.09684
2022-12-07 05:19:00+00:00,179.8715,4.64,12.57,47.84626,-54.09684
2022-12-07 05:29:00+00:00,185.0565,4.86,12.57,47.84626,-54.09684
2022-12-07 05:39:00+00:00,188.4831,4.9,12.57,47.84626,-54.09684
2022-12-07 05:49:00+00:00,192.2431,4.58,12.57,47.84626,-54.09684
2022-12-07 05:59:00+00:00,197.5631,4.53,12.57,47.84626,-54.09684
2022-12-07 06:09:00+00:00,203.0965,4.94,12.57,47.84626,-54.09684
2022-12-07 06:19:01+00:00,208.4781,5.0,12.57,47.84626,-54.09684
2022-12-07 06:29:01+00:00,212.9698,5.0,12.57,47.84626,-54.09684
2022-12-07 06:39:01+00:00,217.5098,5.0,12.57,47.84626,-54.09684
2022-12-07 06:49:01+00:00,221.4198,5.0,12.57,47.84626,-54.09684
2022-12-07 06:59:01+00:00,226.7981,5.0,12.57,47.84626,-54.09684
2022-12-07 07:09:01+00:00,231.6964,5.0,12.57,47.84626,-54.09684
2022-12-07 07:19:00+00:00,233.563,5.0,12.57,47.84626,-54.09684
2022-12-07 07:29:00+00:00,237.1898,5.0,12.57,47.84626,-54.09684
2022-12-07 07:39:00+00:00,243.5764,5.0,12.57,47.84626,-54.09684
2022-12-07 07:49:00+00:00,249.6731,5.0,12.57,47.84626,-54.09684
2022-12-07 07:59:00+00:00,252.5798,5.0,12.57,47.84626,-54.09684
2022-12-07 08:09:00+00:00,257.108,5.0,12.57,47.84626,-54.09684
2022-12-07 08:19:00+00:00,263.5048,5.0,12.57,47.84626,-54.09684
2022-12-07 08:29:00+00:00,266.7714,5.0,12.57,47.84626,-54.09684
2022-12-07 08:39:00+00:00,270.3181,4.9,12.57,47.84626,-54.09684
2022-12-07 08:49:00+00:00,279.4714,4.8,12.57,47.84626,-54.09684
2022-12-07 08:59:00+00:00,287.3297,4.8,12.57,47.84626,-54.09684
2022-12-07 09:09:00+00:00,292.238,4.87,12.57,47.84626,-54.09684
2022-12-07 09:19:00+00:00,300.038,4.87,12.57,47.84626,-54.09684
2022-12-07 09:29:00+00:00,309.0797,4.86,12.57,47.84626,-54.09684
2022-12-07 09:39:00+00:00,314.4064,4.87,12.57,47.84626,-54.09684
2022-12-07 09:49:00+00:00,321.9064,4.89,12.57,47.84626,-54.09684
2022-12-07 09:59:00+00:00,329.8296,4.94,12.57,47.84626,-54.09684
2022-12-07 10:09:00+00:00,328.7613,4.94,12.57,47.84626,-54.09684
2022-12-07 10:19:00+00:00,329.528,4.99,12.57,47.84626,-54.09684
2022-12-07 10:29:00+00:00,337.92800000000005,5.0,12.57,47.84626,-54.09684
2022-12-07 10:39:00+00:00,343.0714,5.0,12.57,47.84626,-54.09684
2022-12-07 10:49:00+00:00,340.2646,5.0,12.57,47.84626,-54.09684
2022-12-07 10:59:00+00:00,340.8247,5.0,12.57,47.84626,-54.09684
2022-12-07 11:09:00+00:00,344.8379,5.0,12.57,47.84626,-54.09684
2022-12-07 11:19:00+00:00,342.5979,5.0,12.57,47.84626,-54.09684
2022-12-07 11:29:00+00:00,340.6163,5.0,12.57,47.84626,-54.09684
2022-12-07 11:39:00+00:00,344.5063,5.0,12.57,47.84626,-54.09684
2022-12-07 11:49:00+00:00,346.5114,5.0,12.57,47.84626,-54.09684
2022-12-07 11:59:00+00:00,341.0129,5.0,12.57,47.84626,-54.09684
2022-12-07 12:09:00+00:00,338.6829,5.0,12.57,47.84626,-54.09684
2022-12-07 12:19:00+00:00,341.2212,5.0,12.89,47.84626,-54.09684
2022-12-07 12:29:00+00:00,339.2297,5.0,12.89,47.84626,-54.09684
2022-12-07 12:39:00+00:00,332.1179,5.0,12.89,47.84626,-54.09684
2022-12-07 12:49:00+00:00,329.6431,5.0,12.89,47.84626,-54.09684
2022-12-07 12:59:00+00:00,328.0214,4.9,12.89,47.84626,-54.09684
2022-12-07 13:09:00+00:00,322.1413,4.59,12.89,47.84626,-54.09684
2022-12-07 13:19:00+00:00,315.1247,4.6,13.6,47.84626,-54.09684
2022-12-07 13:29:00+00:00,311.0414,4.6,13.6,47.84626,-54.09684
2022-12-07 13:39:00+00:00,303.623,4.6,13.6,47.84626,-54.09684
2022-12-07 13:49:00+00:00,295.243,4.6,13.6,47.84626,-54.09684
2022-12-07 13:59:00+00:00,288.5364,4.67,13.6,47.84626,-54.09684
2022-12-07 14:09:00+00:00,284.1815,4.68,13.6,47.84626,-54.09684
2022-12-07 14:19:00+00:00,275.3997,4.67,13.92,47.84626,-54.09684
2022-12-07 14:29:00+00:00,264.6947,4.68,13.92,47.84626,-54.09684
2022-12-07 14:39:00+00:00,254.6348,4.69,13.92,47.84626,-54.09684
2022-12-07 14:49:00+00:00,249.2997,4.7,13.92,47.84626,-54.09684
2022-12-07 14:59:00+00:00,241.0164,4.7,13.92,47.84626,-54.09684
2022-12-07 15:09:00+00:00,227.9547,4.7,13.92,47.84626,-54.09684
2022-12-07 15:19:00+00:00,220.4048,4.7,14.0,47.84626,-54.09684
2022-12-07 15:29:00+00:00,216.3415,4.7,14.0,47.84626,-54.09684
2022-12-07 15:39:00+00:00,205.5181,4.7,14.0,47.84626,-54.09684
2022-12-07 15:49:00+00:00,195.5148,4.7,14.0,47.84626,-54.09684
2022-12-07 15:59:00+00:00,192.8614,4.6,14.0,47.84626,-54.09684
2022-12-07 16:09:00+00:00,187.9365,4.6,14.0,47.84626,-54.09684
2022-12-07 16:19:01+00:00,181.3565,4.68,13.29,47.84626,-54.09684
2022-12-07 16:29:01+00:00,180.8882,4.7,13.29,47.84626,-54.09684
2022-12-07 16:39:01+00:00,178.5465,4.73,13.29,47.84626,-54.09684
2022-12-07 16:49:01+00:00,175.6247,4.77,13.29,47.84626,-54.09684
2022-12-07 16:59:01+00:00,178.2398,4.8,13.29,47.84626,-54.09684
2022-12-07 17:09:01+00:00,176.0631,4.8,13.29,47.84626,-54.09684
2022-12-07 17:19:00+00:00,170.7964,4.8,13.05,47.84626,-54.09684
2022-12-07 17:29:00+00:00,174.5915,4.8,13.05,47.84626,-54.09684
2022-12-07 17:39:00+00:00,179.6115,4.8,13.05,47.84626,-54.09684
2022-12-07 17:49:00+00:00,178.1815,4.8,13.05,47.84626,-54.09684
2022-12-07 17:59:00+00:00,179.8198,4.8,13.05,47.84626,-54.09684
2022-12-07 18:09:00+00:00,187.3898,4.83,13.05,47.84626,-54.09684
2022-12-07 18:19:00+00:00,188.5847,4.8,13.13,47.84626,-54.09684
2022-12-07 18:29:00+00:00,185.5848,4.8,13.13,47.84626,-54.09684
2022-12-07 18:39:00+00:00,191.1182,4.8,13.13,47.84626,-54.09684
2022-12-07 18:49:00+00:00,197.2648,4.77,13.13,47.84626,-54.09684
2022-12-07 18:59:00+00:00,197.2047,4.8,13.13,47.84626,-54.09684
2022-12-07 19:09:00+00:00,199.8531,4.8,13.13,47.84626,-54.09684
2022-12-07 19:19:01+00:00,207.9465,4.8,12.89,47.84626,-54.09684
2022-12-07 19:29:01+00:00,214.2314,4.8,12.89,47.84626,-54.09684
2022-12-07 19:39:01+00:00,218.4364,4.8,12.89,47.84626,-54.09684
2022-12-07 19:49:01+00:00,225.2997,4.8,12.89,47.84626,-54.09684
2022-12-07 19:59:01+00:00,231.5847,4.89,12.89,47.84626,-54.09684
2022-12-07 20:09:01+00:00,234.4464,4.9,12.89,47.84626,-54.09684
2022-12-07 20:19:00+00:00,239.6548,4.9,12.81,47.84626,-54.09684
2022-12-07 20:29:00+00:00,247.2548,4.9,12.81,47.84626,-54.09684
2022-12-07 20:39:00+00:00,250.4498,4.9,12.81,47.84626,-54.09684
2022-12-07 20:49:00+00:00,249.2997,4.9,12.81,47.84626,-54.09684
2022-12-07 20:59:00+00:00,251.8748,4.9,12.81,47.84626,-54.09684
2022-12-07 21:09:00+00:00,260.558,4.9,12.81,47.84626,-54.09684
2022-12-07 21:19:00+00:00,266.7947,4.9,12.73,47.84626,-54.09684
2022-12-07 21:29:00+00:00,269.2097,4.9,12.73,47.84626,-54.09684
2022-12-07 21:39:00+00:00,273.798,4.9,12.73,47.84626,-54.09684
2022-12-07 21:49:00+00:00,281.1697,5.0,12.73,47.84626,-54.09684
2022-12-07 21:59:00+00:00,287.9831,4.98,12.73,47.84626,-54.09684
2022-12-07 22:09:00+00:00,296.293,4.98,12.73,47.84626,-54.09684
2022-12-07 22:19:00+00:00,303.9913,4.97,12.73,47.84626,-54.09684
2022-12-07 22:29:00+00:00,306.6912,4.95,12.73,47.84626,-54.09684
2022-12-07 22:39:00+00:00,309.0598,4.94,12.73,47.84626,-54.09684
2022-12-07 22:49:00+00:00,312.2448,4.97,12.73,47.84626,-54.09684
2022-12-07 22:59:00+00:00,316.923,5.0,12.73,47.84626,-54.09684
2022-12-07 23:09:00+00:00,317.7646,5.0,12.73,47.84626,-54.09684
2022-12-07 23:19:00+00:00,319.9315,5.0,12.73,47.84626,-54.09684
2022-12-07 23:29:00+00:00,319.2346,4.99,12.73,47.84626,-54.09684
2022-12-07 23:39:00+00:00,316.7731,4.9,12.73,47.84626,-54.09684
2022-12-07 23:49:00+00:00,317.6395,4.94,12.73,47.84626,-54.09684
2022-12-07 23:59:00+00:00,317.428,5.0,12.73,47.84626,-54.09684
